OAL418 SANU-SGAS

Flight info

Callsign OAL418
Flight time 1h 46m
Altitude 39000
Route KIBUN DCT JUA UW24 CBA UL531 ERE UW14 BITUS UP526 SAMGU
Aircraft A320/M-SDE3FGHIRWY/LB1

Departure

Time 2026-05-05 17:13
Airport Domingo Faustino Sarmiento Airport (SANU)

Arrival

Time 2026-05-05 18:59
Airport Silvio Pettirossi International Airport (SGAS)
Time Latitude Longitude Altitude Speed Heading
2026-05-05 16:55 -31.57151 -68.42099 1973 ft 0 kts 270°
2026-05-05 17:02 -31.57151 -68.42089 1973 ft 2 kts 272°
2026-05-05 17:02 -31.57154 -68.42068 1973 ft 3 kts 291°
2026-05-05 17:03 -31.57164 -68.42048 1973 ft 3 kts 310°
2026-05-05 17:03 -31.57173 -68.42036 1973 ft 1 kts 310°
2026-05-05 17:03 -31.57174 -68.42035 1973 ft 0 kts 310°
2026-05-05 17:05 -31.57170 -68.42039 1973 ft 1 kts 327°
2026-05-05 17:06 -31.57157 -68.42042 1973 ft 5 kts 349°
2026-05-05 17:06 -31.57113 -68.42057 1973 ft 7 kts 339°
2026-05-05 17:06 -31.57072 -68.42065 1973 ft 5 kts 28°
2026-05-05 17:06 -31.57037 -68.42027 1973 ft 8 kts 44°
2026-05-05 17:07 -31.56987 -68.41971 1973 ft 12 kts 44°
2026-05-05 17:07 -31.56921 -68.41896 1973 ft 15 kts 41°
2026-05-05 17:07 -31.56845 -68.41811 1973 ft 11 kts 43°
2026-05-05 17:07 -31.56842 -68.41808 1973 ft 0 kts 43°
2026-05-05 17:09 -31.56833 -68.41797 1973 ft 4 kts 43°
2026-05-05 17:09 -31.56806 -68.41768 1973 ft 7 kts 43°
2026-05-05 17:09 -31.56760 -68.41724 1973 ft 10 kts 21°
2026-05-05 17:09 -31.56665 -68.41718 1973 ft 20 kts
2026-05-05 17:10 -31.56479 -68.41723 1973 ft 31 kts 360°
2026-05-05 17:10 -31.56256 -68.41721 1973 ft 33 kts
2026-05-05 17:10 -31.56109 -68.41719 1973 ft 6 kts 37°
2026-05-05 17:10 -31.56091 -68.41717 1973 ft 2 kts 258°
2026-05-05 17:11 -31.56107 -68.41723 1973 ft 4 kts 188°
2026-05-05 17:11 -31.56123 -68.41723 1973 ft 0 kts 179°
2026-05-05 17:12 -31.56145 -68.41723 1973 ft 14 kts 179°
2026-05-05 17:12 -31.56521 -68.41720 1974 ft 94 kts 179°
2026-05-05 17:13 -31.57421 -68.41708 1998 ft 155 kts 179°
2026-05-05 17:13 -31.58469 -68.41684 2740 ft 151 kts 178°
2026-05-05 17:13 -31.59522 -68.41657 3530 ft 153 kts 178°
2026-05-05 17:13 -31.60596 -68.41637 4124 ft 160 kts 180°
2026-05-05 17:14 -31.61733 -68.41582 4622 ft 168 kts 170°
2026-05-05 17:14 -31.62834 -68.41062 5175 ft 174 kts 146°
2026-05-05 17:14 -31.63671 -68.40055 5881 ft 172 kts 122°
2026-05-05 17:14 -31.64095 -68.38772 6574 ft 168 kts 98°
2026-05-05 17:15 -31.64053 -68.37417 7177 ft 166 kts 75°
2026-05-05 17:15 -31.63557 -68.36155 7524 ft 182 kts 53°
2026-05-05 17:15 -31.62643 -68.34978 7708 ft 209 kts 44°
2026-05-05 17:15 -31.61516 -68.33697 7846 ft 242 kts 43°
2026-05-05 17:16 -31.60225 -68.32282 8249 ft 262 kts 43°
2026-05-05 17:16 -31.58860 -68.30798 8936 ft 271 kts 43°
2026-05-05 17:16 -31.57636 -68.29108 9762 ft 273 kts 58°
2026-05-05 17:16 -31.56893 -68.27065 10637 ft 275 kts 73°
2026-05-05 17:17 -31.56522 -68.24816 11232 ft 290 kts 79°
2026-05-05 17:17 -31.56302 -68.22384 11626 ft 311 kts 85°
2026-05-05 17:17 -31.56167 -68.19777 12004 ft 329 kts 85°
2026-05-05 17:17 -31.56028 -68.17041 12445 ft 344 kts 85°
2026-05-05 17:18 -31.55890 -68.14196 12922 ft 356 kts 85°
2026-05-05 17:18 -31.55812 -68.11230 13311 ft 370 kts 88°
2026-05-05 17:18 -31.55773 -68.08155 13661 ft 385 kts 88°
2026-05-05 17:18 -31.55734 -68.04964 14012 ft 398 kts 87°
2026-05-05 17:19 -31.55646 -68.01709 14289 ft 412 kts 86°
2026-05-05 17:19 -31.55519 -67.98331 14806 ft 417 kts 86°
2026-05-05 17:19 -31.55342 -67.94909 15323 ft 423 kts 84°
2026-05-05 17:19 -31.55060 -67.91456 15858 ft 427 kts 82°
2026-05-05 17:20 -31.54666 -67.87991 16458 ft 430 kts 79°
2026-05-05 17:20 -31.54256 -67.84517 17103 ft 431 kts 81°
2026-05-05 17:20 -31.53919 -67.81019 17749 ft 433 kts 82°
2026-05-05 17:20 -31.53602 -67.77500 18387 ft 435 kts 82°
2026-05-05 17:21 -31.53296 -67.73964 19022 ft 437 kts 82°
2026-05-05 17:21 -31.52993 -67.70409 19644 ft 439 kts 83°
2026-05-05 17:21 -31.52785 -67.66825 20202 ft 443 kts 85°
2026-05-05 17:22 -31.52516 -67.59524 21218 ft 452 kts 86°
2026-05-05 17:22 -31.52362 -67.55831 21739 ft 455 kts 85°
2026-05-05 17:22 -31.52177 -67.52110 22207 ft 460 kts 85°
2026-05-05 17:22 -31.51974 -67.48342 22510 ft 468 kts 84°
2026-05-05 17:23 -31.51773 -67.44509 22900 ft 473 kts 85°
2026-05-05 17:23 -31.51580 -67.40660 23384 ft 475 kts 85°
2026-05-05 17:23 -31.51394 -67.36837 23853 ft 477 kts 85°
2026-05-05 17:23 -31.51201 -67.32937 24276 ft 480 kts 85°
2026-05-05 17:24 -31.51006 -67.29022 24688 ft 483 kts 85°
2026-05-05 17:24 -31.50804 -67.25071 25090 ft 487 kts 85°
2026-05-05 17:24 -31.50600 -67.21093 25476 ft 490 kts 85°
2026-05-05 17:24 -31.50398 -67.17102 25858 ft 493 kts 85°
2026-05-05 17:25 -31.50190 -67.13085 26229 ft 496 kts 84°
2026-05-05 17:25 -31.50047 -67.10396 26469 ft 498 kts 84°
2026-05-05 17:25 -31.49756 -67.04962 26950 ft 502 kts 84°
2026-05-05 17:25 -31.49542 -67.00868 27292 ft 505 kts 84°
2026-05-05 17:26 -31.49325 -66.96745 27640 ft 508 kts 84°
2026-05-05 17:26 -31.49102 -66.92598 27976 ft 511 kts 84°
2026-05-05 17:26 -31.48881 -66.88490 28305 ft 514 kts 84°
2026-05-05 17:26 -31.48653 -66.84293 28634 ft 517 kts 84°
2026-05-05 17:27 -31.48416 -66.80080 28952 ft 520 kts 84°
2026-05-05 17:27 -31.48179 -66.75836 29257 ft 523 kts 84°
2026-05-05 17:27 -31.47942 -66.71569 29558 ft 526 kts 84°
2026-05-05 17:27 -31.47703 -66.67285 29838 ft 529 kts 84°
2026-05-05 17:28 -31.47460 -66.62975 30146 ft 531 kts 84°
2026-05-05 17:28 -31.47212 -66.58657 30528 ft 531 kts 84°
2026-05-05 17:28 -31.46961 -66.54338 30912 ft 531 kts 84°
2026-05-05 17:28 -31.46709 -66.50019 31247 ft 532 kts 84°
2026-05-05 17:29 -31.46460 -66.45685 31641 ft 532 kts 84°
2026-05-05 17:29 -31.46213 -66.41360 31974 ft 533 kts 84°
2026-05-05 17:29 -31.45965 -66.37086 32316 ft 534 kts 84°
2026-05-05 17:29 -31.45708 -66.32752 32699 ft 533 kts 84°
2026-05-05 17:30 -31.45450 -66.28425 33171 ft 530 kts 84°
2026-05-05 17:30 -31.45194 -66.24128 33675 ft 527 kts 84°
2026-05-05 17:30 -31.44936 -66.19844 34155 ft 524 kts 83°
2026-05-05 17:30 -31.44677 -66.15589 34545 ft 523 kts 83°
2026-05-05 17:31 -31.44418 -66.11347 34887 ft 524 kts 84°
2026-05-05 17:31 -31.44157 -66.07074 35107 ft 527 kts 84°
2026-05-05 17:31 -31.43894 -66.02789 35313 ft 530 kts 84°
2026-05-05 17:31 -31.43628 -65.98462 35532 ft 533 kts 84°
2026-05-05 17:32 -31.43360 -65.94171 35790 ft 535 kts 84°
2026-05-05 17:32 -31.43089 -65.89836 36100 ft 534 kts 84°
2026-05-05 17:32 -31.42814 -65.85496 36421 ft 534 kts 84°
2026-05-05 17:32 -31.42542 -65.81157 36666 ft 535 kts 84°
2026-05-05 17:33 -31.42268 -65.76800 36880 ft 537 kts 84°
2026-05-05 17:33 -31.41992 -65.72451 37154 ft 537 kts 84°
2026-05-05 17:33 -31.41712 -65.68093 37424 ft 537 kts 84°
2026-05-05 17:33 -31.41430 -65.63729 37620 ft 538 kts 84°
2026-05-05 17:34 -31.41146 -65.59362 37820 ft 539 kts 84°
2026-05-05 17:34 -31.40860 -65.54981 38060 ft 539 kts 84°
2026-05-05 17:34 -31.40573 -65.50605 38270 ft 540 kts 84°
2026-05-05 17:34 -31.40283 -65.46213 38444 ft 541 kts 84°
2026-05-05 17:35 -31.39992 -65.41827 38634 ft 541 kts 84°
2026-05-05 17:35 -31.39799 -65.38920 38773 ft 541 kts 84°
2026-05-05 17:35 -31.39504 -65.34516 38905 ft 543 kts 84°
2026-05-05 17:36 -31.38816 -65.24277 38921 ft 543 kts 84°
2026-05-05 17:36 -31.38314 -65.16879 38922 ft 544 kts 84°
2026-05-05 17:37 -31.37707 -65.08080 38923 ft 542 kts 84°
2026-05-05 17:37 -31.37094 -64.99286 38923 ft 543 kts 83°
2026-05-05 17:38 -31.36474 -64.90486 38939 ft 542 kts 83°
2026-05-05 17:38 -31.35850 -64.81741 38950 ft 542 kts 83°
2026-05-05 17:39 -31.35226 -64.72936 38953 ft 543 kts 84°
2026-05-05 17:39 -31.34590 -64.64131 38935 ft 543 kts 83°
2026-05-05 17:40 -31.33940 -64.55326 38920 ft 544 kts 83°
2026-05-05 17:40 -31.33291 -64.46506 38934 ft 543 kts 83°
2026-05-05 17:41 -31.32643 -64.37754 38933 ft 543 kts 83°
2026-05-05 17:41 -31.31975 -64.28953 38940 ft 543 kts 83°
2026-05-05 17:42 -31.30721 -64.20304 38953 ft 534 kts 64°
2026-05-05 17:42 -31.29077 -64.16493 38950 ft 519 kts 49°
2026-05-05 17:42 -31.27011 -64.13056 38946 ft 515 kts 45°
2026-05-05 17:43 -31.22662 -64.06433 38911 ft 513 kts 44°
2026-05-05 17:43 -31.18414 -63.99692 38871 ft 517 kts 47°
2026-05-05 17:44 -31.14236 -63.92831 38859 ft 519 kts 47°
2026-05-05 17:44 -31.09982 -63.86020 38862 ft 521 kts 46°
2026-05-05 17:45 -31.05671 -63.79181 38860 ft 525 kts 46°
2026-05-05 17:45 -31.01364 -63.72282 38920 ft 527 kts 46°
2026-05-05 17:46 -30.97068 -63.65423 38946 ft 527 kts 46°
2026-05-05 17:46 -30.92736 -63.58533 38950 ft 527 kts 46°
2026-05-05 17:47 -30.88430 -63.51622 38946 ft 527 kts 47°
2026-05-05 17:47 -30.84230 -63.44654 38923 ft 526 kts 47°
2026-05-05 17:48 -30.80006 -63.37723 38884 ft 524 kts 46°
2026-05-05 17:48 -30.75746 -63.30833 38860 ft 525 kts 46°
2026-05-05 17:49 -30.71426 -63.23968 38860 ft 527 kts 46°
2026-05-05 17:49 -30.67081 -63.17071 38860 ft 531 kts 46°
2026-05-05 17:50 -30.62732 -63.10137 38910 ft 532 kts 46°
2026-05-05 17:50 -30.58358 -63.03199 38949 ft 532 kts 46°
2026-05-05 17:51 -30.53981 -62.96272 38949 ft 532 kts 46°
2026-05-05 17:51 -30.49624 -62.89383 38947 ft 532 kts 46°
2026-05-05 17:52 -30.45248 -62.82464 38916 ft 532 kts 46°
2026-05-05 17:52 -30.40868 -62.75564 38877 ft 532 kts 46°
2026-05-05 17:53 -30.36466 -62.68648 38860 ft 534 kts 46°
2026-05-05 17:53 -30.32048 -62.61722 38859 ft 536 kts 46°
2026-05-05 17:54 -30.27594 -62.54788 38864 ft 538 kts 46°
2026-05-05 17:54 -30.23121 -62.47828 38915 ft 539 kts 46°
2026-05-05 17:55 -30.18645 -62.40865 38947 ft 540 kts 46°
2026-05-05 17:55 -30.14148 -62.33892 38949 ft 540 kts 46°
2026-05-05 17:56 -30.09665 -62.26934 38949 ft 538 kts 46°
2026-05-05 17:56 -30.05199 -62.20029 38939 ft 535 kts 46°
2026-05-05 17:57 -30.00744 -62.13159 38901 ft 533 kts 46°
2026-05-05 17:57 -29.96303 -62.06308 38862 ft 533 kts 46°
2026-05-05 17:58 -29.91877 -61.99502 38855 ft 535 kts 45°
2026-05-05 17:58 -29.87520 -61.92439 38851 ft 546 kts 57°
2026-05-05 17:59 -29.84813 -61.84251 38877 ft 554 kts 70°
2026-05-05 17:59 -29.82571 -61.75741 38924 ft 556 kts 70°
2026-05-05 18:00 -29.80170 -61.67272 38944 ft 556 kts 68°
2026-05-05 18:00 -29.77668 -61.58864 38944 ft 555 kts 69°
2026-05-05 18:01 -29.75263 -61.50442 38947 ft 552 kts 69°
2026-05-05 18:01 -29.72867 -61.42072 38942 ft 549 kts 69°
2026-05-05 18:02 -29.70444 -61.33759 38911 ft 547 kts 69°
2026-05-05 18:02 -29.68038 -61.25491 38873 ft 546 kts 69°
2026-05-05 18:03 -29.65631 -61.17202 38862 ft 546 kts 69°
2026-05-05 18:03 -29.63213 -61.08925 38857 ft 548 kts 69°
2026-05-05 18:04 -29.60795 -61.00676 38892 ft 549 kts 70°
2026-05-05 18:04 -29.58355 -60.92361 38952 ft 549 kts 69°
2026-05-05 18:05 -29.55894 -60.83996 38947 ft 549 kts 69°
2026-05-05 18:05 -29.53442 -60.75759 38952 ft 548 kts 68°
2026-05-05 18:06 -29.50940 -60.67507 38953 ft 546 kts 69°
2026-05-05 18:06 -29.48464 -60.59295 38928 ft 544 kts 69°
2026-05-05 18:07 -29.45994 -60.51100 38891 ft 543 kts 68°
2026-05-05 18:07 -29.43503 -60.42912 38866 ft 543 kts 69°
2026-05-05 18:08 -29.41017 -60.34707 38865 ft 545 kts 69°
2026-05-05 18:08 -29.38554 -60.26469 38870 ft 549 kts 69°
2026-05-05 18:09 -29.36051 -60.18128 38904 ft 556 kts 69°
2026-05-05 18:09 -29.33505 -60.09736 38913 ft 558 kts 69°
2026-05-05 18:10 -29.30959 -60.01340 38917 ft 557 kts 69°
2026-05-05 18:10 -29.28425 -59.92966 38918 ft 556 kts 69°
2026-05-05 18:11 -29.25890 -59.84662 38951 ft 555 kts 69°
2026-05-05 18:11 -29.23341 -59.76315 38936 ft 556 kts 69°
2026-05-05 18:12 -29.20694 -59.67990 38913 ft 554 kts 62°
2026-05-05 18:12 -29.17160 -59.60193 38952 ft 551 kts 58°
2026-05-05 18:13 -29.13455 -59.52528 38920 ft 550 kts 57°
2026-05-05 18:13 -29.09801 -59.44830 38905 ft 550 kts 58°
2026-05-05 18:14 -29.06181 -59.37119 38875 ft 550 kts 58°
2026-05-05 18:14 -29.02527 -59.29427 38870 ft 550 kts 58°
2026-05-05 18:15 -28.98878 -59.21769 38868 ft 549 kts 58°
2026-05-05 18:15 -28.95245 -59.14136 38872 ft 550 kts 58°
2026-05-05 18:16 -28.91578 -59.06463 38910 ft 551 kts 58°
2026-05-05 18:16 -28.87919 -58.98799 38970 ft 550 kts 58°
2026-05-05 18:17 -28.84250 -58.91117 38969 ft 551 kts 59°
2026-05-05 18:17 -28.80646 -58.83401 38973 ft 552 kts 59°
2026-05-05 18:18 -28.77052 -58.75675 38973 ft 551 kts 59°
2026-05-05 18:18 -28.73418 -58.67971 38955 ft 551 kts 58°
2026-05-05 18:19 -28.69783 -58.60283 38963 ft 551 kts 59°
2026-05-05 18:19 -28.66163 -58.52605 38959 ft 550 kts 59°
2026-05-05 18:20 -28.62553 -58.44979 38925 ft 550 kts 58°
2026-05-05 18:20 -28.58820 -58.37365 38888 ft 550 kts 57°
2026-05-05 18:21 -28.55053 -58.29781 38882 ft 550 kts 58°
2026-05-05 18:21 -28.51339 -58.22187 38884 ft 550 kts 58°
2026-05-05 18:22 -28.47621 -58.14596 38893 ft 549 kts 58°
2026-05-05 18:22 -28.43872 -58.07012 38903 ft 550 kts 58°
2026-05-05 18:23 -28.40759 -58.00722 38947 ft 550 kts 58°
2026-05-05 18:23 -28.37012 -57.93144 38965 ft 550 kts 58°
2026-05-05 18:24 -28.33264 -57.85558 38996 ft 551 kts 58°
2026-05-05 18:24 -28.29498 -57.77983 38995 ft 551 kts 58°
2026-05-05 18:25 -28.25735 -57.70397 38996 ft 551 kts 58°
2026-05-05 18:25 -28.21064 -57.63674 38994 ft 536 kts 34°
2026-05-05 18:25 -28.18080 -57.61255 38980 ft 521 kts 21°
2026-05-05 18:26 -28.14827 -57.59600 38963 ft 505 kts
2026-05-05 18:26 -28.11514 -57.58702 38947 ft 488 kts 356°
2026-05-05 18:26 -28.08174 -57.58416 38933 ft 478 kts 350°
2026-05-05 18:27 -28.01520 -57.58257 38914 ft 479 kts 349°
2026-05-05 18:27 -27.94834 -57.58010 38930 ft 483 kts 351°
2026-05-05 18:28 -27.84749 -57.57542 39008 ft 483 kts 351°
2026-05-05 18:28 -27.81395 -57.57408 38864 ft 480 kts 351°
2026-05-05 18:28 -27.78120 -57.57274 38622 ft 472 kts 351°
2026-05-05 18:29 -27.74870 -57.57133 38376 ft 463 kts 351°
2026-05-05 18:29 -27.71637 -57.56995 38126 ft 456 kts 351°
2026-05-05 18:29 -27.68469 -57.56869 37881 ft 456 kts 351°
2026-05-05 18:29 -27.65348 -57.56750 37638 ft 455 kts 351°
2026-05-05 18:30 -27.62187 -57.56623 37391 ft 455 kts 351°
2026-05-05 18:30 -27.59019 -57.56492 37145 ft 455 kts 352°
2026-05-05 18:30 -27.55854 -57.56363 36899 ft 455 kts 352°
2026-05-05 18:30 -27.52694 -57.56231 36653 ft 454 kts 352°
2026-05-05 18:31 -27.49537 -57.56101 36408 ft 454 kts 352°
2026-05-05 18:31 -27.46379 -57.55972 36121 ft 455 kts 352°
2026-05-05 18:31 -27.43214 -57.55841 35652 ft 454 kts 353°
2026-05-05 18:31 -27.40061 -57.55720 35153 ft 453 kts 353°
2026-05-05 18:32 -27.36914 -57.55629 34615 ft 452 kts 352°
2026-05-05 18:32 -27.33763 -57.55552 34071 ft 452 kts 353°
2026-05-05 18:32 -27.30619 -57.55477 33541 ft 451 kts 353°
2026-05-05 18:32 -27.27480 -57.55390 33038 ft 450 kts 354°
2026-05-05 18:33 -27.24360 -57.55293 32537 ft 448 kts 354°
2026-05-05 18:33 -27.21255 -57.55193 31993 ft 445 kts 354°
2026-05-05 18:33 -27.18171 -57.55098 31454 ft 441 kts 354°
2026-05-05 18:33 -27.15121 -57.55011 30924 ft 436 kts 355°
2026-05-05 18:34 -27.12110 -57.54927 30432 ft 430 kts 354°
2026-05-05 18:34 -27.09178 -57.54846 29960 ft 424 kts 355°
2026-05-05 18:34 -27.06241 -57.54764 29427 ft 420 kts 355°
2026-05-05 18:34 -27.03334 -57.54677 28915 ft 415 kts 355°
2026-05-05 18:35 -27.00458 -57.54591 28428 ft 410 kts 355°
2026-05-05 18:35 -26.97621 -57.54507 27947 ft 405 kts 355°
2026-05-05 18:35 -26.94816 -57.54426 27485 ft 400 kts 355°
2026-05-05 18:35 -26.92050 -57.54346 27002 ft 396 kts 356°
2026-05-05 18:36 -26.89349 -57.54239 27076 ft 376 kts 356°
2026-05-05 18:36 -26.86805 -57.54153 27226 ft 355 kts 355°
2026-05-05 18:36 -26.84388 -57.54096 27175 ft 342 kts 354°
2026-05-05 18:36 -26.82039 -57.54075 26966 ft 334 kts 354°
2026-05-05 18:37 -26.79732 -57.54067 26645 ft 330 kts 353°
2026-05-05 18:37 -26.77426 -57.54062 26140 ft 333 kts 354°
2026-05-05 18:37 -26.75119 -57.54054 25429 ft 341 kts 354°
2026-05-05 18:37 -26.72700 -57.54039 24489 ft 355 kts 355°
2026-05-05 18:38 -26.70184 -57.54010 23553 ft 367 kts 356°
2026-05-05 18:38 -26.67592 -57.53974 22646 ft 376 kts 356°
2026-05-05 18:38 -26.64948 -57.53936 21731 ft 383 kts 356°
2026-05-05 18:38 -26.62272 -57.53903 20985 ft 385 kts 356°
2026-05-05 18:39 -26.59607 -57.53872 20523 ft 378 kts 356°
2026-05-05 18:39 -26.57028 -57.53841 20335 ft 364 kts 356°
2026-05-05 18:39 -26.54541 -57.53811 20184 ft 350 kts 356°
2026-05-05 18:39 -26.52154 -57.53782 20032 ft 338 kts 356°
2026-05-05 18:40 -26.49829 -57.53756 19710 ft 332 kts 356°
2026-05-05 18:40 -26.47524 -57.53736 19252 ft 331 kts 356°
2026-05-05 18:40 -26.45224 -57.53716 18825 ft 329 kts 356°
2026-05-05 18:40 -26.42938 -57.53692 18406 ft 327 kts 356°
2026-05-05 18:41 -26.40671 -57.53668 17991 ft 324 kts 356°
2026-05-05 18:41 -26.38420 -57.53644 17577 ft 322 kts 356°
2026-05-05 18:41 -26.36195 -57.53620 17181 ft 319 kts 356°
2026-05-05 18:41 -26.33987 -57.53596 16789 ft 316 kts 356°
2026-05-05 18:42 -26.31802 -57.53574 16396 ft 313 kts 356°
2026-05-05 18:42 -26.29634 -57.53552 16011 ft 310 kts 356°
2026-05-05 18:42 -26.27484 -57.53530 15634 ft 307 kts 356°
2026-05-05 18:42 -26.25380 -57.53507 15299 ft 304 kts 356°
2026-05-05 18:43 -26.23269 -57.53484 15047 ft 303 kts 357°
2026-05-05 18:43 -26.21169 -57.53462 14798 ft 301 kts 357°
2026-05-05 18:43 -26.19080 -57.53442 14550 ft 299 kts 356°
2026-05-05 18:43 -26.17003 -57.53419 14303 ft 297 kts 357°
2026-05-05 18:44 -26.14941 -57.53399 14056 ft 295 kts 356°
2026-05-05 18:44 -26.12896 -57.53376 13759 ft 292 kts 357°
2026-05-05 18:44 -26.10875 -57.53383 13384 ft 289 kts 356°
2026-05-05 18:44 -26.08869 -57.53423 12992 ft 287 kts 355°
2026-05-05 18:45 -26.06882 -57.53472 12609 ft 284 kts 355°
2026-05-05 18:45 -26.04914 -57.53519 12233 ft 282 kts 356°
2026-05-05 18:45 -26.02966 -57.53564 11857 ft 279 kts 356°
2026-05-05 18:45 -26.01034 -57.53608 11476 ft 276 kts 356°
2026-05-05 18:46 -25.99123 -57.53649 11089 ft 274 kts 356°
2026-05-05 18:46 -25.97225 -57.53687 10696 ft 272 kts 356°
2026-05-05 18:46 -25.95329 -57.53730 10323 ft 271 kts 356°
2026-05-05 18:46 -25.93448 -57.53772 9967 ft 269 kts 357°
2026-05-05 18:47 -25.91597 -57.53812 9682 ft 263 kts 357°
2026-05-05 18:47 -25.89801 -57.53850 9503 ft 254 kts 357°
2026-05-05 18:47 -25.88045 -57.53889 9179 ft 251 kts 357°
2026-05-05 18:47 -25.86306 -57.53929 8835 ft 249 kts 357°
2026-05-05 18:48 -25.84579 -57.53966 8500 ft 247 kts 357°
2026-05-05 18:48 -25.82862 -57.54003 8157 ft 246 kts 357°
2026-05-05 18:48 -25.81146 -57.54048 7808 ft 246 kts 357°
2026-05-05 18:48 -25.79443 -57.54090 7470 ft 244 kts 357°
2026-05-05 18:49 -25.77750 -57.54126 7117 ft 243 kts 357°
2026-05-05 18:49 -25.76056 -57.54164 6757 ft 244 kts 357°
2026-05-05 18:49 -25.74357 -57.54204 6373 ft 245 kts 358°
2026-05-05 18:49 -25.72646 -57.54255 5974 ft 246 kts 356°
2026-05-05 18:50 -25.70947 -57.54350 5691 ft 244 kts 356°
2026-05-05 18:50 -25.69246 -57.54412 5462 ft 246 kts 357°
2026-05-05 18:50 -25.67553 -57.54463 5256 ft 246 kts 357°
2026-05-05 18:50 -25.65821 -57.54578 5032 ft 246 kts 356°
2026-05-05 18:51 -25.64144 -57.54692 4853 ft 244 kts 356°
2026-05-05 18:51 -25.62456 -57.54793 4696 ft 241 kts 357°
2026-05-05 18:51 -25.60789 -57.54881 4528 ft 239 kts 357°
2026-05-05 18:51 -25.59133 -57.54957 4337 ft 237 kts 358°
2026-05-05 18:52 -25.57487 -57.55025 4144 ft 236 kts 358°
2026-05-05 18:52 -25.55853 -57.55086 4055 ft 232 kts 358°
2026-05-05 18:52 -25.54257 -57.55195 4029 ft 227 kts 354°
2026-05-05 18:52 -25.52710 -57.55475 4022 ft 224 kts 350°
2026-05-05 18:53 -25.51183 -57.55781 3934 ft 222 kts 351°
2026-05-05 18:53 -25.49676 -57.56055 3788 ft 216 kts 352°
2026-05-05 18:53 -25.48212 -57.56298 3632 ft 209 kts 353°
2026-05-05 18:53 -25.46788 -57.56512 3422 ft 204 kts 356°
2026-05-05 18:54 -25.45406 -57.56428 3263 ft 195 kts
2026-05-05 18:54 -25.44082 -57.56243 3125 ft 190 kts
2026-05-05 18:54 -25.42817 -57.56074 3047 ft 181 kts
2026-05-05 18:54 -25.41575 -57.55915 3001 ft 178 kts
2026-05-05 18:55 -25.40376 -57.55732 2919 ft 170 kts
2026-05-05 18:55 -25.39246 -57.55552 2802 ft 161 kts
2026-05-05 18:55 -25.38128 -57.55324 2507 ft 164 kts 11°
2026-05-05 18:55 -25.37020 -57.55109 2319 ft 160 kts 10°
2026-05-05 18:56 -25.35939 -57.54900 2094 ft 159 kts 10°
2026-05-05 18:56 -25.34833 -57.54702 1853 ft 158 kts 10°
2026-05-05 18:56 -25.33783 -57.54546 1666 ft 147 kts
2026-05-05 18:56 -25.32830 -57.54429 1615 ft 137 kts
2026-05-05 18:57 -25.31839 -57.54365 1600 ft 145 kts
2026-05-05 18:57 -25.30849 -57.54461 1461 ft 142 kts 358°
2026-05-05 18:57 -25.29893 -57.54561 1286 ft 135 kts 359°
2026-05-05 18:57 -25.28973 -57.54489 1105 ft 133 kts 15°
2026-05-05 18:58 -25.28096 -57.54141 918 ft 135 kts 26°
2026-05-05 18:58 -25.27267 -57.53689 752 ft 130 kts 27°
2026-05-05 18:58 -25.26455 -57.53241 581 ft 131 kts 27°
2026-05-05 18:58 -25.25631 -57.52799 397 ft 131 kts 27°
2026-05-05 18:59 -25.24829 -57.52366 307 ft 119 kts 26°
2026-05-05 18:59 -25.24211 -57.52036 307 ft 78 kts 26°
2026-05-05 18:59 -25.23846 -57.51838 307 ft 40 kts 27°
2026-05-05 18:59 -25.23608 -57.51709 307 ft 38 kts 25°
2026-05-05 19:00 -25.23371 -57.51583 307 ft 38 kts 26°
2026-05-05 19:00 -25.23176 -57.51478 307 ft 11 kts 26°
2026-05-05 19:00 -25.23144 -57.51417 307 ft 11 kts 107°
2026-05-05 19:00 -25.23184 -57.51321 307 ft 16 kts 116°
2026-05-05 19:01 -25.23245 -57.51275 307 ft 11 kts 209°
2026-05-05 19:01 -25.23326 -57.51322 307 ft 15 kts 205°
2026-05-05 19:01 -25.23430 -57.51378 307 ft 18 kts 206°
2026-05-05 19:01 -25.23556 -57.51447 307 ft 22 kts 206°
2026-05-05 19:02 -25.23702 -57.51526 307 ft 25 kts 206°
2026-05-05 19:02 -25.23868 -57.51616 307 ft 24 kts 205°
2026-05-05 19:02 -25.23963 -57.51666 307 ft 8 kts 204°
2026-05-05 19:02 -25.24029 -57.51654 307 ft 12 kts 162°
2026-05-05 19:03 -25.24115 -57.51630 307 ft 12 kts 195°
2026-05-05 19:03 -25.24196 -57.51670 307 ft 14 kts 210°
2026-05-05 19:03 -25.24266 -57.51705 307 ft 5 kts 186°
2026-05-05 19:03 -25.24283 -57.51690 307 ft 5 kts 132°
2026-05-05 19:04 -25.24310 -57.51644 307 ft 7 kts 121°
2026-05-05 19:04 -25.24328 -57.51611 307 ft 1 kts 124°
2026-05-05 19:04 -25.24329 -57.51610 307 ft 0 kts 124°